Time,TemperatureF,DewpointF,PressureIn,WindDirection,WindDirectionDegrees,WindSpeedMPH,WindSpeedGustMPH,Humidity,HourlyPrecipIn,Conditions,Clouds,dailyrainin,SoftwareType,DateUTC
2013-01-14 00:15:00,26.6,24.0,30.25,WNW,283,0.0,5.0,89,0.00,,,0.00,weatherlink.com 1.10,2013-01-14 05:15:00,
2013-01-14 00:30:00,26.6,24.0,30.25,West,267,0.0,6.0,89,0.00,,,0.00,weatherlink.com 1.10,2013-01-14 05:30:00,
2013-01-14 00:45:00,26.4,24.0,30.26,West,261,2.0,9.0,89,0.00,,,0.00,weatherlink.com 1.10,2013-01-14 05:45:00,
2013-01-14 01:00:00,25.9,23.0,30.27,WNW,293,2.0,6.0,89,0.00,,,0.00,weatherlink.com 1.10,2013-01-14 06:00:00,
2013-01-14 01:15:00,25.8,23.0,30.27,West,267,3.0,5.0,89,0.00,,,0.00,weatherlink.com 1.10,2013-01-14 06:15:00,
2013-01-14 01:30:00,25.5,23.0,30.28,NW,319,0.0,6.0,88,0.00,,,0.00,weatherlink.com 1.10,2013-01-14 06:30:00,
2013-01-14 01:46:00,25.2,22.0,30.28,WNW,298,3.0,6.0,87,0.00,,,0.00,weatherlink.com 1.10,2013-01-14 06:46:00,
2013-01-14 02:01:00,24.7,21.0,30.29,NW,317,2.0,6.0,87,0.00,,,0.00,weatherlink.com 1.10,2013-01-14 07:01:00,
2013-01-14 02:16:00,24.6,22.0,30.30,NW,325,1.0,7.0,88,0.00,,,0.00,weatherlink.com 1.10,2013-01-14 07:16:00,
2013-01-14 02:31:00,24.6,22.0,30.30,WNW,303,3.0,7.0,88,0.00,,,0.00,weatherlink.com 1.10,2013-01-14 07:31:00,
2013-01-14 02:46:00,24.3,21.0,30.31,NNE,17,2.0,10.0,87,0.00,,,0.00,weatherlink.com 1.10,2013-01-14 07:46:00,
2013-01-14 03:01:00,24.1,21.0,30.32,NW,325,2.0,6.0,87,0.00,,,0.00,weatherlink.com 1.10,2013-01-14 08:01:00,
2013-01-14 03:16:00,24.0,21.0,30.33,NNW,327,1.0,4.0,88,0.00,,,0.00,weatherlink.com 1.10,2013-01-14 08:16:00,
2013-01-14 03:31:00,24.1,21.0,30.34,NNW,331,2.0,6.0,88,0.00,,,0.00,weatherlink.com 1.10,2013-01-14 08:31:00,
2013-01-14 03:46:00,24.1,21.0,30.34,West,277,0.0,2.0,89,0.00,,,0.00,weatherlink.com 1.10,2013-01-14 08:46:00,
2013-01-14 04:01:00,24.1,21.0,30.34,West,275,2.0,4.0,88,0.00,,,0.00,weatherlink.com 1.10,2013-01-14 09:01:00,
2013-01-14 04:16:00,24.0,21.0,30.34,NW,310,2.0,3.0,88,0.00,,,0.00,weatherlink.com 1.10,2013-01-14 09:16:00,
2013-01-14 04:31:00,24.0,21.0,30.34,WNW,302,1.0,5.0,89,0.00,,,0.00,weatherlink.com 1.10,2013-01-14 09:31:00,
2013-01-14 04:46:00,23.8,21.0,30.33,NW,321,3.0,8.0,88,0.00,,,0.00,weatherlink.com 1.10,2013-01-14 09:46:00,
2013-01-14 05:01:00,23.6,21.0,30.34,NW,323,3.0,8.0,88,0.00,,,0.00,weatherlink.com 1.10,2013-01-14 10:01:00,
2013-01-14 05:16:00,23.3,20.0,30.34,NNW,331,0.0,6.0,87,0.00,,,0.00,weatherlink.com 1.10,2013-01-14 10:16:00,
2013-01-14 05:31:00,23.2,20.0,30.34,NW,324,3.0,10.0,88,0.00,,,0.00,weatherlink.com 1.10,2013-01-14 10:31:00,
2013-01-14 05:46:00,22.9,20.0,30.35,NW,322,1.0,6.0,88,0.00,,,0.00,weatherlink.com 1.10,2013-01-14 10:46:00,
2013-01-14 06:01:00,22.8,20.0,30.35,NNW,333,2.0,6.0,88,0.00,,,0.00,weatherlink.com 1.10,2013-01-14 11:01:00,
2013-01-14 06:16:00,22.8,20.0,30.36,West,271,0.0,7.0,88,0.00,,,0.00,weatherlink.com 1.10,2013-01-14 11:16:00,
2013-01-14 06:31:00,22.8,20.0,30.37,NW,324,4.0,5.0,88,0.00,,,0.00,weatherlink.com 1.10,2013-01-14 11:31:00,
2013-01-14 06:46:00,22.9,20.0,30.38,NW,322,5.0,8.0,88,0.00,,,0.00,weatherlink.com 1.10,2013-01-14 11:46:00,
2013-01-14 07:01:00,22.6,20.0,30.39,NW,320,2.0,5.0,88,0.00,,,0.00,weatherlink.com 1.10,2013-01-14 12:01:00,
2013-01-14 07:16:00,22.4,19.0,30.39,WNW,302,3.0,5.0,88,0.00,,,0.00,weatherlink.com 1.10,2013-01-14 12:16:00,
2013-01-14 07:31:00,21.8,19.0,30.41,NNW,338,0.0,7.0,87,0.00,,,0.00,weatherlink.com 1.10,2013-01-14 12:31:00,
2013-01-14 07:46:00,21.7,19.0,30.41,NW,315,0.0,4.0,88,0.00,,,0.00,weatherlink.com 1.10,2013-01-14 12:46:00,
2013-01-14 08:01:00,21.7,19.0,30.41,NNW,346,2.0,4.0,88,0.00,,,0.00,weatherlink.com 1.10,2013-01-14 13:01:00,
2013-01-14 08:16:00,21.6,19.0,30.41,NNE,12,1.0,5.0,88,0.00,,,0.00,weatherlink.com 1.10,2013-01-14 13:16:00,
2013-01-14 08:31:00,21.7,19.0,30.42,NW,313,2.0,4.0,89,0.00,,,0.00,weatherlink.com 1.10,2013-01-14 13:31:00,
2013-01-14 08:46:00,21.9,19.0,30.43,NW,318,2.0,7.0,88,0.00,,,0.00,weatherlink.com 1.10,2013-01-14 13:46:00,
2013-01-14 09:01:00,21.9,19.0,30.43,NW,321,1.0,7.0,88,0.00,,,0.00,weatherlink.com 1.10,2013-01-14 14:01:00,
2013-01-14 09:17:00,22.0,19.0,30.43,NW,324,0.0,4.0,88,0.00,,,0.00,weatherlink.com 1.10,2013-01-14 14:17:00,
2013-01-14 09:32:00,22.0,19.0,30.43,NNE,13,4.0,5.0,87,0.00,,,0.00,weatherlink.com 1.10,2013-01-14 14:32:00,
2013-01-14 09:47:00,22.4,19.0,30.42,North,11,8.0,8.0,88,0.00,,,0.00,weatherlink.com 1.10,2013-01-14 14:47:00,
2013-01-14 10:02:00,22.8,20.0,30.42,North,5,6.0,9.0,87,0.00,,,0.00,weatherlink.com 1.10,2013-01-14 15:02:00,
2013-01-14 10:17:00,22.9,19.0,30.41,NNE,23,3.0,7.0,86,0.00,,,0.00,weatherlink.com 1.10,2013-01-14 15:17:00,
2013-01-14 10:47:00,23.5,20.0,30.40,North,360,3.0,8.0,85,0.00,,,0.00,weatherlink.com 1.10,2013-01-14 15:47:00,
2013-01-14 11:02:00,23.9,20.0,30.42,NE,51,2.0,6.0,86,0.00,,,0.00,weatherlink.com 1.10,2013-01-14 16:02:00,
2013-01-14 11:17:00,25.0,21.0,30.40,NNE,17,3.0,7.0,86,0.00,,,0.00,weatherlink.com 1.10,2013-01-14 16:17:00,
2013-01-14 11:32:00,25.7,22.0,30.40,NNW,340,2.0,6.0,84,0.00,,,0.00,weatherlink.com 1.10,2013-01-14 16:32:00,
2013-01-14 11:47:00,27.6,24.0,30.40,NNE,13,3.0,8.0,85,0.00,,,0.00,weatherlink.com 1.10,2013-01-14 16:47:00,
2013-01-14 12:02:00,27.4,23.0,30.41,North,360,3.0,9.0,83,0.00,,,0.00,weatherlink.com 1.10,2013-01-14 17:02:00,
2013-01-14 12:17:00,27.1,22.0,30.41,North,360,2.0,7.0,82,0.00,,,0.00,weatherlink.com 1.10,2013-01-14 17:17:00,
2013-01-14 12:32:00,27.6,23.0,30.40,NNW,328,0.0,6.0,82,0.00,,,0.00,weatherlink.com 1.10,2013-01-14 17:32:00,
2013-01-14 12:47:00,27.2,22.0,30.41,NW,312,4.0,8.0,81,0.00,,,0.00,weatherlink.com 1.10,2013-01-14 17:47:00,
2013-01-14 13:02:00,26.6,22.0,30.38,NW,315,2.0,7.0,83,0.00,,,0.00,weatherlink.com 1.10,2013-01-14 18:02:00,
2013-01-14 13:17:00,27.0,22.0,30.38,NW,311,2.0,8.0,82,0.00,,,0.00,weatherlink.com 1.10,2013-01-14 18:17:00,
2013-01-14 13:32:00,27.8,23.0,30.37,North,360,3.0,8.0,82,0.00,,,0.00,weatherlink.com 1.10,2013-01-14 18:32:00,
2013-01-14 13:47:00,28.3,23.0,30.38,NNW,343,2.0,12.0,79,0.00,,,0.00,weatherlink.com 1.10,2013-01-14 18:47:00,
2013-01-14 14:02:00,27.9,22.0,30.39,North,349,7.0,7.0,79,0.00,,,0.00,weatherlink.com 1.10,2013-01-14 19:02:00,
2013-01-14 14:17:00,28.2,22.0,30.41,NNE,32,3.0,6.0,78,0.00,,,0.00,weatherlink.com 1.10,2013-01-14 19:17:00,
2013-01-14 14:32:00,27.9,22.0,30.40,NNW,340,3.0,9.0,77,0.00,,,0.00,weatherlink.com 1.10,2013-01-14 19:32:00,
2013-01-14 14:47:00,28.1,22.0,30.42,SW,236,1.0,8.0,77,0.00,,,0.00,weatherlink.com 1.10,2013-01-14 19:47:00,
2013-01-14 15:02:00,28.1,22.0,30.44,NW,326,4.0,8.0,77,0.00,,,0.00,weatherlink.com 1.10,2013-01-14 20:02:00,
2013-01-14 15:17:00,28.3,22.0,30.45,NW,321,5.0,8.0,76,0.00,,,0.00,weatherlink.com 1.10,2013-01-14 20:17:00,
2013-01-14 15:32:00,28.5,22.0,30.47,WNW,294,0.0,6.0,77,0.00,,,0.00,weatherlink.com 1.10,2013-01-14 20:32:00,
2013-01-14 15:47:00,28.5,22.0,30.45,NW,321,1.0,3.0,77,0.00,,,0.00,weatherlink.com 1.10,2013-01-14 20:47:00,
2013-01-14 16:02:00,28.5,22.0,30.42,North,355,0.0,7.0,77,0.00,,,0.00,weatherlink.com 1.10,2013-01-14 21:02:00,
2013-01-14 16:17:00,28.3,22.0,30.41,NNE,14,3.0,7.0,78,0.00,,,0.00,weatherlink.com 1.10,2013-01-14 21:17:00,
2013-01-14 16:32:00,28.2,22.0,30.44,NNW,329,3.0,6.0,77,0.00,,,0.00,weatherlink.com 1.10,2013-01-14 21:32:00,
2013-01-14 16:47:00,28.0,22.0,30.41,NNE,26,3.0,9.0,77,0.00,,,0.00,weatherlink.com 1.10,2013-01-14 21:47:00,
2013-01-14 17:02:00,27.8,21.0,30.43,NE,36,3.0,8.0,77,0.00,,,0.00,weatherlink.com 1.10,2013-01-14 22:02:00,
2013-01-14 17:17:00,27.7,21.0,30.43,NNE,18,0.0,7.0,77,0.00,,,0.00,weatherlink.com 1.10,2013-01-14 22:17:00,
2013-01-14 17:32:00,27.6,22.0,30.43,NNE,13,0.0,4.0,78,0.00,,,0.00,weatherlink.com 1.10,2013-01-14 22:32:00,
2013-01-14 17:47:00,27.5,22.0,30.41,NNE,23,3.0,5.0,78,0.00,,,0.00,weatherlink.com 1.10,2013-01-14 22:47:00,
2013-01-14 18:02:00,27.4,22.0,30.42,NNW,333,2.0,6.0,79,0.00,,,0.00,weatherlink.com 1.10,2013-01-14 23:02:00,
2013-01-14 18:17:00,27.0,22.0,30.42,North,360,0.0,5.0,80,0.00,,,0.00,weatherlink.com 1.10,2013-01-14 23:17:00,
2013-01-14 18:32:00,26.8,22.0,30.41,NNW,344,0.0,3.0,81,0.00,,,0.00,weatherlink.com 1.10,2013-01-14 23:32:00,
2013-01-14 18:47:00,26.5,21.0,30.40,North,11,2.0,6.0,81,0.00,,,0.00,weatherlink.com 1.10,2013-01-14 23:47:00,
2013-01-14 19:02:00,26.0,21.0,30.39,North,9,3.0,4.0,82,0.00,,,0.00,weatherlink.com 1.10,2013-01-15 00:02:00,
2013-01-14 19:17:00,25.6,21.0,30.40,NNE,15,0.0,4.0,83,0.00,,,0.00,weatherlink.com 1.10,2013-01-15 00:17:00,
2013-01-14 19:32:00,25.2,21.0,30.40,NNW,346,3.0,4.0,84,0.00,,,0.00,weatherlink.com 1.10,2013-01-15 00:32:00,
2013-01-14 19:47:00,25.0,21.0,30.39,NNW,348,0.0,4.0,85,0.00,,,0.00,weatherlink.com 1.10,2013-01-15 00:47:00,
2013-01-14 20:02:00,24.6,21.0,30.39,NNW,346,0.0,2.0,86,0.00,,,0.00,weatherlink.com 1.10,2013-01-15 01:02:00,
2013-01-14 20:17:00,24.2,21.0,30.38,NNW,346,0.0,2.0,87,0.00,,,0.00,weatherlink.com 1.10,2013-01-15 01:17:00,
2013-01-14 20:32:00,23.7,21.0,30.38,NNW,346,0.0,1.0,88,0.00,,,0.00,weatherlink.com 1.10,2013-01-15 01:32:00,
2013-01-14 20:47:00,23.3,21.0,30.38,NNW,346,1.0,2.0,89,0.00,,,0.00,weatherlink.com 1.10,2013-01-15 01:47:00,
2013-01-14 21:02:00,23.4,20.0,30.37,NNE,13,1.0,4.0,88,0.00,,,0.00,weatherlink.com 1.10,2013-01-15 02:02:00,
2013-01-14 21:17:00,23.4,20.0,30.38,NNE,15,0.0,3.0,88,0.00,,,0.00,weatherlink.com 1.10,2013-01-15 02:17:00,
2013-01-14 21:32:00,23.2,20.0,30.39,NNE,13,0.0,1.0,88,0.00,,,0.00,weatherlink.com 1.10,2013-01-15 02:32:00,
2013-01-14 21:47:00,23.0,20.0,30.39,NNE,13,0.0,0.0,89,0.00,,,0.00,weatherlink.com 1.10,2013-01-15 02:47:00,
2013-01-14 22:02:00,22.6,20.0,30.39,NNE,15,1.0,1.0,89,0.00,,,0.00,weatherlink.com 1.10,2013-01-15 03:02:00,
2013-01-14 22:17:00,22.6,20.0,30.38,NNE,17,5.0,6.0,89,0.00,,,0.00,weatherlink.com 1.10,2013-01-15 03:17:00,
2013-01-14 22:32:00,22.8,20.0,30.38,NNE,22,2.0,6.0,88,0.00,,,0.00,weatherlink.com 1.10,2013-01-15 03:32:00,
2013-01-14 22:47:00,22.9,20.0,30.38,North,9,4.0,7.0,87,0.00,,,0.00,weatherlink.com 1.10,2013-01-15 03:47:00,
2013-01-14 23:02:00,22.7,19.0,30.38,North,5,1.0,6.0,87,0.00,,,0.00,weatherlink.com 1.10,2013-01-15 04:02:00,
2013-01-14 23:17:00,22.6,19.0,30.38,NE,35,2.0,5.0,87,0.00,,,0.00,weatherlink.com 1.10,2013-01-15 04:17:00,
2013-01-14 23:32:00,22.5,20.0,30.38,NNE,14,0.0,4.0,88,0.00,,,0.00,weatherlink.com 1.10,2013-01-15 04:32:00,
2013-01-14 23:47:00,22.4,19.0,30.38,NNE,19,4.0,6.0,88,0.00,,,0.00,weatherlink.com 1.10,2013-01-15 04:47:00,